Content
SEND FEEDBACK

Daily
Averages
Monthly
Summary
United States of America

BARTON HILLS, MICHIGAN


Home > North America > United States > Michigan
Elevation: 899 feet     Latitude: 42 18N     Longitude: 083 43W

WEATHER
 
SELECT A DAY
Number of Records: 207,075;   Date Range: 1/1/95 - 10/23/14
 
SHARE

PRINT THIS DATA

[ ← Previous Day ]
WEATHER ALMANAC - MARCH 19, 2013
[ Next Day → ]
[ °C ]   °F
Weather ElementAverageHighLow
Temperature26.5 °F35.1 °F (1:53 am)23 °F (8:29 am)
Dewpoint16.9 °F30.2 °F (1:22 am)12.2 °F (11:31 am)
Humidity67.5 %87 % (1:22 am)58 % (1:53 pm)
Barometer29.79 in29.96 in (9:53 pm)29.61 in (1:22 am)
Wind Speed18.9 mph25.3 mph (3:53 am)
Wind Gust38 mph (3:53 pm)
Weather ElementAverage
Visibility8.2 mi
Wind DirectionWSW (256.1 °)

Weather ElementTotal
Precipitation---
Heating Degree Days36 (Base 65)
Averaged from 38 records on March 19, 2013
WEATHER CONDITIONS BREAKOUT
WIND DIRECTION BREAKOUT
WEATHER BY HOUR - MARCH 19, 2013
[ °C ]   °F
Local TimeTemperatureDewpointHumidityBarometerVisibilityWind DirectionWind SpeedGust SpeedPrecipitationEventsConditions
12:53 AM34.0 °F30.0 °F85 %29.65 in10.0 miWSW (240°)10.4 mphOvercast
1:22 AM33.8 °F30.2 °F87 %29.61 in10.0 miSW (230°)9.2 mphOvercast
1:33 AM33.8 °F30.2 °F87 %29.61 in10.0 miSW (230°)10.4 mphOvercast
1:53 AM35.1 °F28.9 °F78 %29.63 in10.0 miWSW (240°)9.2 mphOvercast
2:53 AM30.9 °F23.0 °F72 %29.67 in10.0 miWest (280°)19.6 mph29.9 mph0.00 inOvercast
3:53 AM28.0 °F19.0 °F69 %29.69 in10.0 miWSW (250°)25.3 mph31.1 mphOvercast
4:53 AM26.1 °F17.1 °F69 %29.72 in10.0 miWest (270°)20.7 mph28.8 mphOvercast
5:53 AM25.0 °F18.0 °F75 %29.73 in5.0 miWest (260°)18.4 mph23.0 mph0.00 inSnowLight Snow
6:28 AM24.8 °F15.8 °F69 %29.71 in9.0 miWest (260°)21.9 mph28.8 mph0.00 inOvercast
6:53 AM24.1 °F15.1 °F69 %29.75 in10.0 miWSW (240°)17.3 mph25.3 mph0.00 inOvercast
7:53 AM24.1 °F15.1 °F69 %29.77 in6.0 miWSW (240°)16.1 mph25.3 mph0.00 inSnowLight Snow
8:29 AM23.0 °F15.8 °F74 %29.74 in3.0 miWSW (240°)13.8 mph26.5 mph0.00 inSnowLight Snow
8:53 AM23.0 °F15.1 °F72 %29.77 in4.0 miWSW (240°)17.3 mph25.3 mph0.00 inSnowLight Snow
9:06 AM23.0 °F14.0 °F68 %29.74 in9.0 miWSW (250°)21.9 mph28.8 mph0.00 inOvercast
9:46 AM24.8 °F17.6 °F74 %29.74 in3.0 miWSW (240°)18.4 mph24.2 mph0.00 inSnowLight Snow
9:53 AM23.0 °F16.0 °F74 %29.77 in3.0 miWSW (250°)17.3 mph24.2 mph0.00 inSnowLight Snow
10:23 AM24.8 °F14.0 °F64 %29.74 in9.0 miWest (260°)23.0 mph31.1 mph0.00 inOvercast
10:40 AM24.8 °F15.8 °F69 %29.75 in2.5 miWSW (250°)21.9 mph29.9 mph0.00 inSnowLight Snow
10:53 AM24.1 °F14.0 °F65 %29.78 in9.0 miWest (260°)18.4 mph26.5 mph0.00 inOvercast
11:31 AM24.8 °F12.2 °F59 %29.76 in8.0 miWest (260°)23.0 mph33.4 mph0.00 inSnowLight Snow
11:44 AM24.8 °F12.2 °F59 %29.76 in10.0 miWSW (250°)24.2 mph32.2 mph0.00 inOvercast
11:53 AM25.0 °F12.9 °F60 %29.80 in10.0 miWest (260°)20.7 mph32.2 mph0.00 inOvercast
12:53 PM25.0 °F14.0 °F63 %29.81 in7.0 miWest (260°)23.0 mph31.1 mph0.00 inSnowLight Snow
1:38 PM24.8 °F15.8 °F69 %29.79 in9.0 miWSW (250°)20.7 mph34.5 mph0.00 inSnowLight Snow
1:53 PM26.1 °F12.9 °F58 %29.83 in9.0 miWest (260°)24.2 mph34.5 mph0.00 inSnowLight Snow
2:45 PM24.8 °F15.8 °F69 %29.81 in4.0 miWSW (250°)21.9 mph32.2 mph0.00 inSnowLight Snow
2:53 PM25.0 °F14.0 °F63 %29.85 in7.0 miWest (260°)21.9 mph33.4 mph0.00 inSnowLight Snow
3:04 PM24.8 °F14.0 °F64 %29.81 in8.0 miWSW (250°)25.3 mph34.5 mph0.00 inSnowLight Snow
3:11 PM24.8 °F15.8 °F69 %29.82 in8.0 miWest (260°)23.0 mph34.5 mph0.00 inSnowLight Snow
3:53 PM27.0 °F15.1 °F61 %29.86 in9.0 miWSW (250°)25.3 mph38.0 mph0.00 inSnowLight Snow
4:53 PM27.0 °F16.0 °F63 %29.87 in9.0 miWest (260°)18.4 mph33.4 mph0.00 inSnowLight Snow
5:53 PM28.0 °F16.0 °F61 %29.89 in10.0 miWest (270°)18.4 mph32.2 mph0.00 inOvercast
6:53 PM28.0 °F16.0 °F61 %29.91 in10.0 miWest (280°)18.4 mph26.5 mphOvercast
7:53 PM28.0 °F16.0 °F61 %29.93 in10.0 miWest (280°)17.3 mphOvercast
8:53 PM27.0 °F15.1 °F61 %29.95 in10.0 miWest (270°)17.3 mph27.6 mphMostly Cloudy
9:53 PM27.0 °F14.0 °F58 %29.96 in10.0 miWest (280°)17.3 mph24.2 mphPartly Cloudy
10:53 PM27.0 °F14.0 °F58 %29.96 in10.0 miWest (270°)15.0 mph23.0 mphScattered Clouds
11:53 PM27.0 °F14.0 °F58 %29.96 in10.0 miWest (280°)12.7 mph23.0 mphMostly Cloudy
Hourly data recorded from KARB, located miles away from Barton Hills, Michigan







STORIES FROM OUR PARTNERS